When you browse on this site, cookies collect data to enhance your experience and personalize the content and advertising you see.
Visit our Privacy Policy to learn more. By continuing to use the site, you agree to this use of cookies and data.
  • In Portugal
  • List of Countries
  • For 7 days
  • Water Temperature
  • Satellite Maps
  • Weather Map
  • Weather Widgets
  • user-avatar
    Login

    Hourly Weather Rogow

    Today, 16 June, Sunday

    Time Temperature Precipitation Wind Pressure Humidity
    00:00 +22°C° 1.1 mm 3 mps 738 mmHg 90%
    01:00 +21°C° 0 mm 2 mps 739 mmHg 90%
    02:00 +21°C° 0 mm 3 mps 738 mmHg 91%
    03:00 +20°C° 0 mm 3 mps 738 mmHg 92%
    04:00 +19°C° 0 mm 3 mps 738 mmHg 93%
    05:00 +20°C° 0 mm 3 mps 739 mmHg 89%
    06:00 +21°C° 0 mm 3 mps 739 mmHg 86%
    07:00 +22°C° 0 mm 3 mps 740 mmHg 83%
    08:00 +24°C° 0 mm 3 mps 740 mmHg 77%
    09:00 +26°C° 0 mm 4 mps 740 mmHg 71%
    10:00 +27°C° 0 mm 4 mps 740 mmHg 65%
    11:00 +28°C° 0 mm 4 mps 740 mmHg 64%
    12:00 +28°C° 0 mm 5 mps 740 mmHg 62%
    13:00 +28°C° 0 mm 5 mps 741 mmHg 60%
    14:00 +28°C° 0 mm 5 mps 741 mmHg 61%
    15:00 +27°C° 0 mm 5 mps 741 mmHg 61%
    16:00 +27°C° 0 mm 5 mps 741 mmHg 62%
    17:00 +25°C° 0.1 mm 4 mps 741 mmHg 68%
    18:00 +23°C° 0.1 mm 4 mps 742 mmHg 74%
    19:00 +21°C° 0.1 mm 3 mps 742 mmHg 81%
    20:00 +20°C° 0.1 mm 3 mps 742 mmHg 82%
    21:00 +19°C° 0.1 mm 3 mps 743 mmHg 84%
    22:00 +19°C° 0.1 mm 3 mps 743 mmHg 86%
    23:00 +18°C° 0 mm 3 mps 743 mmHg 87%

    Tomorrow, 17 June, Monday

    Time Temperature Precipitation Wind Pressure Humidity
    00:00 +17°C° 0 mm 3 mps 743 mmHg 88%
    01:00 +16°C° 0 mm 3 mps 743 mmHg 90%
    02:00 +16°C° 0 mm 3 mps 743 mmHg 92%
    03:00 +14°C° 0 mm 3 mps 743 mmHg 94%
    04:00 +14°C° 0 mm 2 mps 743 mmHg 96%
    05:00 +16°C° 0 mm 3 mps 744 mmHg 89%
    06:00 +17°C° 0 mm 3 mps 744 mmHg 83%
    07:00 +18°C° 0 mm 3 mps 744 mmHg 76%
    08:00 +19°C° 0 mm 3 mps 744 mmHg 68%
    09:00 +21°C° 0 mm 3 mps 744 mmHg 60%
    10:00 +22°C° 0 mm 3 mps 744 mmHg 52%
    11:00 +24°C° 0 mm 3 mps 744 mmHg 50%
    12:00 +25°C° 0 mm 3 mps 744 mmHg 47%
    13:00 +26°C° 0 mm 3 mps 744 mmHg 44%
    14:00 +25°C° 0 mm 4 mps 744 mmHg 48%
    15:00 +25°C° 0 mm 4 mps 744 mmHg 52%
    16:00 +25°C° 0 mm 4 mps 743 mmHg 56%
    17:00 +24°C° 0 mm 3 mps 743 mmHg 63%
    18:00 +22°C° 0 mm 3 mps 743 mmHg 71%
    19:00 +20°C° 0 mm 3 mps 743 mmHg 79%
    20:00 +19°C° 0 mm 2 mps 744 mmHg 83%
    21:00 +18°C° 0 mm 2 mps 744 mmHg 87%
    22:00 +17°C° 0 mm 2 mps 744 mmHg 92%
    23:00 +16°C° 0 mm 2 mps 744 mmHg 93%

    Day after tomorrow, 18 June, Tuesday

    Time Temperature Precipitation Wind Pressure Humidity
    00:00 +16°C° 0 mm 2 mps 744 mmHg 94%
    01:00 +16°C° 0 mm 2 mps 744 mmHg 95%
    02:00 +16°C° 0 mm 2 mps 744 mmHg 95%
    03:00 +15°C° 0 mm 2 mps 744 mmHg 96%
    04:00 +15°C° 0 mm 2 mps 744 mmHg 96%
    05:00 +17°C° 0 mm 3 mps 744 mmHg 90%
    06:00 +18°C° 0 mm 3 mps 744 mmHg 84%
    07:00 +19°C° 0 mm 3 mps 744 mmHg 79%
    08:00 +20°C° 0 mm 3 mps 744 mmHg 73%
    09:00 +22°C° 0 mm 4 mps 744 mmHg 68%
    10:00 +23°C° 0 mm 4 mps 744 mmHg 63%
    11:00 +26°C° 0 mm 4 mps 743 mmHg 59%
    12:00 +26°C° 0 mm 4 mps 743 mmHg 58%
    13:00 +27°C° 0 mm 4 mps 743 mmHg 57%
    14:00 +27°C° 0 mm 4 mps 742 mmHg 58%
    15:00 +27°C° 0 mm 4 mps 742 mmHg 58%
    16:00 +27°C° 0 mm 4 mps 742 mmHg 59%
    17:00 +26°C° 0 mm 4 mps 741 mmHg 65%
    18:00 +25°C° 0 mm 3 mps 741 mmHg 71%
    19:00 +24°C° 0 mm 3 mps 741 mmHg 77%
    20:00 +22°C° 0 mm 3 mps 741 mmHg 80%
    21:00 +21°C° 0 mm 3 mps 741 mmHg 84%
    22:00 +20°C° 0 mm 2 mps 741 mmHg 87%
    23:00 +20°C° 0.8 mm 3 mps 741 mmHg 89%

    19 June, Wednesday

    Time Temperature Precipitation Wind Pressure Humidity
    00:00 +19°C° 0.8 mm 3 mps 740 mmHg 92%
    01:00 +19°C° 0.8 mm 3 mps 740 mmHg 94%
    02:00 +19°C° 0.6 mm 3 mps 740 mmHg 95%
    03:00 +18°C° 0.6 mm 3 mps 740 mmHg 95%
    04:00 +18°C° 0.6 mm 3 mps 740 mmHg 96%
    05:00 +19°C° 0.1 mm 3 mps 740 mmHg 94%
    06:00 +20°C° 0.1 mm 3 mps 739 mmHg 92%
    07:00 +20°C° 0.1 mm 3 mps 739 mmHg 90%
    08:00 +21°C° 0.1 mm 2 mps 739 mmHg 89%
    09:00 +23°C° 0.1 mm 2 mps 739 mmHg 87%
    10:00 +23°C° 0.1 mm 2 mps 739 mmHg 85%
    11:00 +25°C° 0.2 mm 2 mps 739 mmHg 78%
    12:00 +26°C° 0.2 mm 2 mps 739 mmHg 71%
    13:00 +27°C° 0.2 mm 2 mps 738 mmHg 64%
    14:00 +28°C° 0 mm 2 mps 738 mmHg 62%
    15:00 +28°C° 0 mm 2 mps 738 mmHg 60%
    16:00 +28°C° 0 mm 2 mps 738 mmHg 58%
    17:00 +27°C° 0.8 mm 2 mps 738 mmHg 66%
    18:00 +25°C° 0.8 mm 1 mps 738 mmHg 74%
    19:00 +24°C° 0.8 mm 1 mps 738 mmHg 82%
    20:00 +23°C° 0.4 mm 1 mps 738 mmHg 83%
    21:00 +23°C° 0.4 mm 1 mps 738 mmHg 84%
    22:00 +22°C° 0.4 mm 1 mps 738 mmHg 85%
    23:00 +22°C° 0.4 mm 1 mps 738 mmHg 86%

    20 June, Thursday

    Time Temperature Precipitation Wind Pressure Humidity
    00:00 +21°C° 0.4 mm 1 mps 738 mmHg 88%
    01:00 +21°C° 0.4 mm 1 mps 737 mmHg 89%
    02:00 +21°C° 0 mm 1 mps 737 mmHg 89%
    03:00 +21°C° 0 mm 1 mps 737 mmHg 89%
    04:00 +21°C° 0 mm 1 mps 737 mmHg 89%
    05:00 +22°C° 0 mm 1 mps 738 mmHg 85%
    06:00 +23°C° 0 mm 1 mps 738 mmHg 82%
    07:00 +24°C° 0 mm 2 mps 738 mmHg 78%
    08:00 +25°C° 0 mm 2 mps 738 mmHg 74%
    09:00 +26°C° 0 mm 2 mps 738 mmHg 70%
    10:00 +27°C° 0 mm 2 mps 738 mmHg 66%
    11:00 +27°C° 0.3 mm 2 mps 738 mmHg 63%
    12:00 +28°C° 0.3 mm 1 mps 738 mmHg 60%
    13:00 +29°C° 0.3 mm 1 mps 738 mmHg 58%
    14:00 +28°C° 0.4 mm 2 mps 738 mmHg 63%
    15:00 +27°C° 0.4 mm 2 mps 738 mmHg 67%
    16:00 +26°C° 0.4 mm 2 mps 738 mmHg 72%
    17:00 +25°C° 0.2 mm 2 mps 738 mmHg 75%
    18:00 +24°C° 0.2 mm 2 mps 738 mmHg 78%
    19:00 +24°C° 0.2 mm 3 mps 738 mmHg 81%
    20:00 +23°C° 0.3 mm 2 mps 738 mmHg 83%
    21:00 +21°C° 0.3 mm 2 mps 739 mmHg 85%
    22:00 +20°C° 0.3 mm 2 mps 739 mmHg 88%
    23:00 +20°C° 0.1 mm 1 mps 739 mmHg 88%

    21 June, Friday

    Time Temperature Precipitation Wind Pressure Humidity
    00:00 +20°C° 0.1 mm 1 mps 739 mmHg 88%
    01:00 +20°C° 0.1 mm 1 mps 739 mmHg 88%
    02:00 +20°C° 0 mm 1 mps 739 mmHg 88%
    03:00 +19°C° 0 mm 1 mps 739 mmHg 89%
    04:00 +17°C° 0 mm 0 mps 739 mmHg 90%
    05:00 +19°C° 0 mm 0 mps 740 mmHg 84%
    06:00 +23°C° 0 mm 1 mps 740 mmHg 78%
    07:00 +25°C° 0 mm 1 mps 740 mmHg 73%
    08:00 +27°C° 0 mm 1 mps 740 mmHg 65%
    09:00 +28°C° 0 mm 1 mps 740 mmHg 58%
    10:00 +30°C° 0 mm 1 mps 740 mmHg 51%
    11:00 +31°C° 0 mm 1 mps 740 mmHg 49%
    12:00 +31°C° 0 mm 2 mps 740 mmHg 47%
    13:00 +31°C° 0 mm 3 mps 740 mmHg 44%
    14:00 +31°C° 0 mm 3 mps 739 mmHg 46%
    15:00 +31°C° 0 mm 3 mps 739 mmHg 48%
    16:00 +32°C° 0 mm 4 mps 738 mmHg 50%
    17:00 +29°C° 0.2 mm 3 mps 738 mmHg 59%
    18:00 +27°C° 0.2 mm 3 mps 738 mmHg 68%
    19:00 +26°C° 0.2 mm 2 mps 738 mmHg 77%
    20:00 +25°C° 0.1 mm 2 mps 738 mmHg 80%
    21:00 +24°C° 0.1 mm 2 mps 738 mmHg 84%
    22:00 +23°C° 0.1 mm 2 mps 738 mmHg 88%
    23:00 +21°C° 0.1 mm 2 mps 738 mmHg 88%
    Show more